[[{"header":{"parameterUnit":"m.s-1","parameterCategory":1,"la1":30.2991,"la2":30.254,"lo1":-89.0895,"lo2":-89.0444,"dy":0.0017,"dx":0.0017,"nx":28,"ny":28,"refTime":"2024-08-11T15:00:00:Z","depth":0,"parameterNumber":2,"parameterNumberName":"U-component_of_WINDS"},"data":[0,0,0,0,0,0,0,0,0,0,0,0,0,0,0,0,0,0,0,0,0,0,0,0,0,0,0,0,0,0,0,0,0,0,0,0,0,0,0,0,0,0,0,0,0,0,0,0,0,0,0,0,0,0,0,0,0,0,3.2821,3.2822,0,3.2924,3.2925,3.2926,3.286,3.2857,3.2854,3.2851,3.2957,3.2963,3.2968,0,0,0,0,0,0,0,0,0,0,0,0,0,3.2569,3.2574,3.2821,3.2822,3.2824,3.2924,3.2925,3.2926,3.2861,3.2857,3.2854,3.285,3.2955,3.2962,3.2969,0,0,0,0,0,0,0,0,0,0,0,0,0,3.2676,3.2575,3.2821,3.2803,3.2802,3.2923,3.2925,3.2927,3.2862,3.2857,3.2853,3.2848,3.2953,3.2961,3.297,3.3114,0,0,3.2996,3.2999,0,0,0,0,0,0,0,0,3.267,3.2685,3.2804,3.2804,3.2804,3.2875,3.2875,3.299,3.2863,3.2839,3.2851,3.2846,3.2933,3.2943,3.2973,3.3119,3.3123,3.2996,3.3002,3.3005,3.3008,0,0,0,0,0,0,0,3.2662,3.268,3.2862,3.2806,3.2806,3.279,3.28,3.2896,3.2911,3.2841,3.2836,3.285,3.2932,3.2965,3.2975,3.3125,3.2996,3.3004,3.3009,3.3012,3.3395,3.34,0,0,0,0,0,0,3.2656,3.2674,3.2858,3.2865,3.2724,3.2798,3.281,3.2857,3.291,3.2913,3.2853,3.2846,3.2952,3.2965,3.2978,3.3151,3.3005,3.3013,3.3018,3.339,3.3397,3.3402,0,0,0,0,0,0,3.2651,3.2673,3.2854,3.2768,3.279,3.2808,3.2861,3.2861,3.2893,3.2919,3.2921,3.2883,3.2949,3.2966,3.3081,3.3153,3.3017,3.3025,3.3384,3.3392,3.3399,3.3497,0,0,0,0,0,0,3.2644,3.2672,3.2727,3.277,3.2795,3.2955,3.2865,3.2866,3.2908,3.2899,3.2948,3.2951,3.2947,3.3068,3.3089,3.3163,3.3031,3.3378,3.3388,3.3397,3.3487,3.3507,3.3524,0,0,0,0,0,3.2635,3.275,3.273,3.2752,3.2864,3.296,3.2974,3.2966,3.2914,3.2969,3.2986,3.295,3.3142,3.3081,3.3104,3.3181,3.3373,3.3385,3.3396,3.3479,3.3503,3.3523,0,0,0,0,0,0,3.2715,3.2755,3.2733,3.2865,3.291,3.2948,3.3018,3.2992,3.3052,3.3041,3.3029,3.3041,3.3161,3.3182,3.3113,3.3323,3.325,3.3266,3.3305,3.3328,3.3346,3.3338,3.3038,0,0,0,0,0,3.2748,3.2822,3.2853,3.2967,3.299,3.3001,3.3042,3.3032,3.3077,3.3096,3.3121,3.3166,3.3237,3.3283,3.335,3.349,3.35,3.3555,3.3573,3.3588,3.3602,3.3678,3.3703,3.344,3.3439,3.3439,0,0,3.2816,3.2848,3.2895,3.2984,3.3017,3.3094,3.3017,3.3101,3.3159,3.3109,3.3218,3.3239,3.3288,3.3417,3.3474,3.3438,3.3677,3.3602,3.3614,3.362,3.3692,3.3717,3.3739,3.3447,3.3446,3.3445,0,0,3.2981,3.3012,3.311,3.3145,3.3196,3.3202,3.3226,3.3269,3.328,3.339,3.3354,3.3422,3.3544,3.3581,3.3616,3.3796,3.3765,3.3818,3.3913,3.3987,3.4008,3.4026,3.4091,3.4114,3.3832,3.3833,3.3833,0,3.3059,3.3174,3.3164,3.3252,3.3292,3.325,3.335,3.3384,3.3454,3.3483,3.3442,3.3594,3.3625,3.3761,3.3805,3.3835,3.3861,3.3812,3.4006,3.4024,3.4041,3.4102,3.4126,3.3839,3.3838,3.3837,3.3837,0,3.3269,3.3349,3.3422,3.3491,3.3539,3.3633,3.3637,3.3687,3.3674,3.3684,3.3797,3.3833,3.3906,3.3937,3.3925,3.4073,3.4049,3.4007,3.3933,3.4073,3.413,3.4153,3.3847,3.3845,3.3843,3.3842,0,0,3.3486,3.3548,3.3575,3.3606,3.3659,3.3721,3.3813,3.3884,3.3928,3.3978,3.4054,3.4159,3.4121,3.4161,3.4152,3.4217,3.4358,3.4168,3.4169,3.4202,3.4523,3.4553,3.4581,3.4338,3.4342,3.4346,3.4518,0,3.3653,3.3813,3.3806,3.3956,3.403,3.3992,3.4071,3.4113,3.4126,3.4191,3.4205,3.4279,3.4223,3.4247,3.431,3.4327,3.4422,3.4315,3.4409,3.4412,3.4397,3.461,3.4643,3.4805,3.4541,3.4544,3.4547,0,3.387,3.3927,3.4084,3.4127,3.4158,3.4229,3.4294,3.4357,3.4404,3.4408,3.4453,3.4434,3.4527,3.4451,3.4579,3.4507,3.4545,3.456,3.4566,3.4574,3.4488,3.4624,3.4856,3.488,3.4582,3.4579,3.4577,0,3.4013,3.4129,3.4238,3.4265,3.4318,3.4369,3.4394,3.4436,3.4479,3.4536,3.4564,3.4632,3.4669,3.4722,3.4722,3.4666,3.4852,3.4775,3.4858,3.4858,3.4899,3.4896,3.514,3.4924,3.4924,3.4923,3.4923,0,3.42,3.4298,3.4302,3.4369,3.4477,3.4469,3.4577,3.4596,3.4634,3.4704,3.4675,3.4742,3.4738,3.4805,3.4806,3.4912,3.4929,3.4936,3.4935,3.4938,3.4938,3.4963,3.4952,3.493,3.4928,3.4927,3.4926,0,3.4378,3.4385,3.4501,3.4541,3.4554,3.4632,3.4666,3.473,3.474,3.4829,3.485,3.4866,3.4944,3.495,3.504,3.504,3.517,3.5156,3.5154,3.5151,3.5234,3.5226,3.5502,3.5538,3.5299,3.5302,3.5304,0,3.4497,3.4571,3.4619,3.4664,3.4692,3.4764,3.4808,3.4803,3.4851,3.491,3.4967,3.5042,3.5102,3.5228,3.5249,3.5318,3.5306,3.5398,3.5316,3.5317,3.5307,3.5303,3.531,3.5413,3.5416,3.5418,3.542,0,3.4708,3.4708,3.4773,3.4839,3.4893,3.4945,3.4993,3.5032,3.5032,3.5087,3.5166,3.5213,3.5305,3.538,3.5448,3.5473,3.5448,3.5446,3.5469,3.5473,3.5468,3.5472,3.5197,3.5439,3.5437,3.5436,3.5435,3.5434,3.486,3.4924,3.4968,3.5041,3.5077,3.5123,3.5185,3.5203,3.5269,3.5344,3.5337,3.5425,3.547,3.5558,3.5589,3.5658,3.5626,3.566,3.5668,3.5676,3.5685,3.5458,3.567,3.5669,3.5669,3.5669,3.5668,0,3.507,3.5096,3.5164,3.5232,3.529,3.526,3.5312,3.5362,3.544,3.5484,3.5544,3.5635,3.5708,3.5734,3.5805,3.5856,3.5846,3.5875,3.5871,3.5877,3.5709,3.5682,3.5882,3.5882,3.5881,3.5881,3.5881,3.5881,3.5186,3.5292,3.5298,3.5422,3.5448,3.5533,3.5566,3.5608,3.5643,3.5747,3.5807,3.5823,3.586,3.5934,3.6,3.6006,3.6033,3.6067,3.6068,3.591,3.5889,3.5868,3.5843,3.6073,3.6073,3.623,3.6232,3.6233]},{"header":{"parameterUnit":"m.s-1","parameterCategory":1,"la1":30.2991,"la2":30.254,"lo1":-89.0895,"lo2":-89.0444,"dy":0.0017,"dx":0.0017,"nx":28,"ny":28,"refTime":"2024-08-11T15:00:00:Z","depth":0,"parameterNumber":3,"parameterNumberName":"V-component_of_WINDS"},"data":[0,0,0,0,0,0,0,0,0,0,0,0,0,0,0,0,0,0,0,0,0,0,0,0,0,0,0,0,0,0,0,0,0,0,0,0,0,0,0,0,0,0,0,0,0,0,0,0,0,0,0,0,0,0,0,0,0,0,-1.4619,-1.462,0,-1.4703,-1.4704,-1.4705,-1.473,-1.4729,-1.4729,-1.4728,-1.4813,-1.4816,-1.4818,0,0,0,0,0,0,0,0,0,0,0,0,0,-1.4481,-1.4483,-1.4619,-1.462,-1.4621,-1.4703,-1.4704,-1.4705,-1.473,-1.4729,-1.4729,-1.4728,-1.4812,-1.4815,-1.4819,0,0,0,0,0,0,0,0,0,0,0,0,0,-1.455,-1.4484,-1.4619,-1.4644,-1.4647,-1.4703,-1.4704,-1.4705,-1.473,-1.4729,-1.4728,-1.4728,-1.4811,-1.4815,-1.4819,-1.4857,0,0,-1.4831,-1.4833,0,0,0,0,0,0,0,0,-1.4546,-1.4555,-1.4639,-1.4642,-1.4645,-1.4705,-1.4686,-1.4756,-1.473,-1.4698,-1.4728,-1.4728,-1.4778,-1.4784,-1.4802,-1.4861,-1.4864,-1.4832,-1.4834,-1.4836,-1.4837,0,0,0,0,0,0,0,-1.4541,-1.4552,-1.4652,-1.464,-1.4644,-1.465,-1.4659,-1.47,-1.4741,-1.4701,-1.4703,-1.4712,-1.4779,-1.4798,-1.4804,-1.4866,-1.4832,-1.4835,-1.4838,-1.4839,-1.496,-1.4961,0,0,0,0,0,0,-1.4533,-1.4548,-1.465,-1.4655,-1.4593,-1.4653,-1.4663,-1.4687,-1.474,-1.4748,-1.4713,-1.4713,-1.4791,-1.4799,-1.4807,-1.4854,-1.4836,-1.484,-1.4842,-1.4959,-1.496,-1.4961,0,0,0,0,0,0,-1.4529,-1.4541,-1.4646,-1.4602,-1.4616,-1.4656,-1.4682,-1.4689,-1.4707,-1.4749,-1.4757,-1.4724,-1.4791,-1.4801,-1.4844,-1.4857,-1.4841,-1.4845,-1.4958,-1.4959,-1.496,-1.4949,0,0,0,0,0,0,-1.4525,-1.454,-1.4555,-1.4602,-1.4618,-1.4682,-1.4683,-1.4691,-1.4714,-1.4715,-1.4762,-1.4769,-1.4791,-1.4838,-1.4848,-1.4863,-1.4848,-1.4957,-1.4959,-1.496,-1.4948,-1.495,-1.4951,0,0,0,0,0,-1.452,-1.4548,-1.4555,-1.4568,-1.4637,-1.4683,-1.4692,-1.4718,-1.4715,-1.473,-1.4757,-1.4767,-1.4855,-1.4842,-1.4854,-1.487,-1.4956,-1.4958,-1.496,-1.4948,-1.4949,-1.4951,0,0,0,0,0,0,-1.4501,-1.4555,-1.4563,-1.4607,-1.464,-1.4687,-1.4707,-1.4718,-1.4753,-1.4753,-1.4783,-1.4793,-1.4834,-1.4856,-1.4842,-1.4909,-1.4906,-1.491,-1.4893,-1.4895,-1.4896,-1.4889,-1.4851,0,0,0,0,0,-1.4502,-1.4535,-1.458,-1.4614,-1.4631,-1.4666,-1.4687,-1.4704,-1.4739,-1.4753,-1.4783,-1.4817,-1.4852,-1.4875,-1.491,-1.4952,-1.4963,-1.4969,-1.497,-1.4971,-1.4974,-1.4998,-1.5001,-1.4967,-1.4967,-1.4967,0,0,-1.4504,-1.4538,-1.4556,-1.4611,-1.4639,-1.4672,-1.4677,-1.4712,-1.4737,-1.4758,-1.4801,-1.4824,-1.4864,-1.4907,-1.4927,-1.4927,-1.4986,-1.4973,-1.4973,-1.4976,-1.5,-1.5003,-1.5006,-1.4968,-1.4968,-1.4968,0,0,-1.4525,-1.4554,-1.4585,-1.4613,-1.4655,-1.4678,-1.4686,-1.4731,-1.4748,-1.4791,-1.4807,-1.4837,-1.4897,-1.4925,-1.4947,-1.4979,-1.4989,-1.4989,-1.4995,-1.5018,-1.5021,-1.5024,-1.5035,-1.5038,-1.4992,-1.4992,-1.4992,0,-1.4522,-1.4573,-1.46,-1.4634,-1.4658,-1.4679,-1.4711,-1.4737,-1.4788,-1.4804,-1.4803,-1.4878,-1.4907,-1.4956,-1.4964,-1.4981,-1.4991,-1.4983,-1.5019,-1.5021,-1.5024,-1.5035,-1.5039,-1.4992,-1.4992,-1.4992,-1.4992,0,-1.4567,-1.4602,-1.4623,-1.4672,-1.4698,-1.4731,-1.4763,-1.4786,-1.4801,-1.4824,-1.4868,-1.4903,-1.4945,-1.4958,-1.4973,-1.501,-1.5009,-1.5013,-1.501,-1.5027,-1.5037,-1.5042,-1.4991,-1.4991,-1.4992,-1.4992,0,0,-1.4577,-1.4641,-1.4648,-1.4671,-1.4719,-1.4746,-1.4781,-1.4822,-1.4841,-1.4876,-1.4905,-1.4955,-1.496,-1.4984,-1.5003,-1.5023,-1.5046,-1.5025,-1.5026,-1.5027,-1.5089,-1.5085,-1.5089,-1.5053,-1.5054,-1.5055,-1.5085,0,-1.4604,-1.4665,-1.4691,-1.4741,-1.4773,-1.4794,-1.4824,-1.4857,-1.488,-1.4911,-1.4936,-1.4971,-1.4975,-1.499,-1.5011,-1.5038,-1.5058,-1.5037,-1.5081,-1.5082,-1.5069,-1.5095,-1.5091,-1.5118,-1.509,-1.509,-1.5091,0,-1.4642,-1.4678,-1.473,-1.4775,-1.4789,-1.4816,-1.4856,-1.4885,-1.4923,-1.4938,-1.4966,-1.4983,-1.502,-1.5015,-1.5066,-1.5051,-1.5071,-1.5087,-1.5088,-1.5093,-1.5087,-1.51,-1.5127,-1.5131,-1.5098,-1.5097,-1.5097,0,-1.4644,-1.4705,-1.4744,-1.4763,-1.4815,-1.4833,-1.4856,-1.4893,-1.4917,-1.4952,-1.4967,-1.5006,-1.5027,-1.5057,-1.5084,-1.5079,-1.5132,-1.513,-1.5146,-1.5145,-1.5156,-1.5155,-1.5186,-1.5169,-1.5169,-1.5169,-1.5169,0,-1.467,-1.4702,-1.4745,-1.477,-1.4806,-1.4835,-1.487,-1.4894,-1.4927,-1.4956,-1.4977,-1.5004,-1.5039,-1.507,-1.5092,-1.5131,-1.514,-1.5153,-1.5159,-1.5151,-1.5149,-1.5164,-1.5163,-1.517,-1.517,-1.517,-1.517,0,-1.4678,-1.4708,-1.4753,-1.4799,-1.4812,-1.4836,-1.4876,-1.49,-1.4924,-1.4961,-1.4972,-1.501,-1.5048,-1.5078,-1.5128,-1.5143,-1.5183,-1.5189,-1.5171,-1.5173,-1.5187,-1.5185,-1.5228,-1.5236,-1.5214,-1.5214,-1.5215,0,-1.4692,-1.4717,-1.4766,-1.4787,-1.481,-1.4844,-1.4868,-1.4898,-1.4922,-1.4967,-1.4986,-1.5026,-1.5059,-1.5119,-1.5151,-1.519,-1.5197,-1.5209,-1.5203,-1.5194,-1.5196,-1.5194,-1.5197,-1.521,-1.521,-1.521,-1.521,0,-1.4715,-1.4729,-1.4762,-1.4802,-1.483,-1.4862,-1.4895,-1.4911,-1.4947,-1.4973,-1.5013,-1.5039,-1.509,-1.5129,-1.5171,-1.5195,-1.5208,-1.5212,-1.5218,-1.521,-1.5198,-1.5204,-1.5172,-1.5211,-1.5211,-1.521,-1.521,-1.521,-1.4726,-1.4749,-1.4787,-1.4824,-1.4852,-1.4882,-1.4908,-1.4935,-1.4969,-1.5012,-1.5028,-1.5069,-1.5106,-1.5164,-1.5188,-1.522,-1.5221,-1.5229,-1.5231,-1.5233,-1.5232,-1.5193,-1.5228,-1.5228,-1.5228,-1.5228,-1.5228,0,-1.4749,-1.4775,-1.4809,-1.4854,-1.4883,-1.4894,-1.4931,-1.4955,-1.499,-1.5024,-1.5056,-1.5102,-1.514,-1.5175,-1.5215,-1.5234,-1.5241,-1.5244,-1.5242,-1.5247,-1.5229,-1.5219,-1.5237,-1.5237,-1.5237,-1.5237,-1.5237,-1.5237,-1.4765,-1.4804,-1.4822,-1.4876,-1.4902,-1.4941,-1.4962,-1.499,-1.5017,-1.5066,-1.5098,-1.5121,-1.5156,-1.5199,-1.5234,-1.5244,-1.5257,-1.5258,-1.5268,-1.525,-1.5249,-1.5247,-1.5239,-1.526,-1.526,-1.5285,-1.5285,-1.5285]}]]